DW9864 Weather Reports


time (UTC)temp
C
wind
direction
speed
KPH
gust
KPH
rain 1hr
cm
rain 24hr
cm
rain mn
cm
humidity
%
barometer
mb
20260504024003 13 309 1.6 8.0 0.03 0.20 0.03 88 1013.3
20260504023503 13 311 1.6 8.0 0.00 0.18 0.00 88 1013.3
20260504023003 13 326 1.6 6.4 0.00 0.18 0.00 88 1013.3
20260504022503 13 360 1.6 6.4 0.00 0.18 0.00 89 1013.3
20260504022003 13 360 1.6 6.4 0.00 0.18 0.00 89 1013.3
20260504021503 13 360 0.0 1.6 0.00 0.18 0.00 89 1013.2
20260504021003 13 360 0.0 3.2 0.00 0.18 0.00 89 1013.1
20260504020503 13 360 1.6 3.2 0.00 0.18 0.00 89 1013.2
20260504020003 13 360 1.6 3.2 0.00 0.18 0.00 88 1013.1
20260504015503 13 360 0.0 1.6 0.00 0.18 0.00 88 1013.0
20260504015003 13 359 0.0 6.4 0.00 0.18 0.00 88 1013.1
20260504014503 13 357 1.6 6.4 0.00 0.18 0.00 88 1013.2
20260504014003 13 4 1.6 4.8 0.00 0.18 0.00 88 1013.2
20260504013517 13 4 1.6 4.8 0.00 0.18 0.00 88 1013.2
20260504013003 13 280 1.6 4.8 0.00 0.18 0.00 89 1013.2
20260504012517 13 270 1.6 4.8 0.00 0.18 0.00 89 1013.1
20260504012003 13 270 0.0 3.2 0.00 0.18 0.00 89 1013.0
20260504011503 13 258 0.0 4.8 0.00 0.18 0.00 89 1013.3
20260504011003 13 245 1.6 4.8 0.00 0.18 0.00 89 1013.2
20260504010517 13 231 1.6 4.8 0.00 0.18 0.00 89 1013.2
20260504010017 13 231 1.6 4.8 0.00 0.18 0.00 89 1013.1
20260504005517 13 231 0.0 3.2 0.00 0.18 0.00 89 1013.0
20260504005004 13 0 0.0 0.0 0.00 0.18 0.00 89 1013.1
20260504004503 13 107 0.0 1.6 0.00 0.18 0.00 88 1013.0
20260504004003 13 107 0.0 4.8 0.00 0.18 0.00 89 1012.9
20260504003503 13 100 1.6 6.4 0.00 0.18 0.00 89 1012.8
20260504003003 13 92 1.6 6.4 0.00 0.18 0.00 88 1012.8
20260504002503 13 88 1.6 3.2 0.00 0.18 0.00 88 1012.8
20260504002003 14 73 1.6 4.8 0.00 0.18 0.00 88 1012.6
20260504001503 14 47 1.6 4.8 0.00 0.18 0.00 88 1012.6
20260504001003 14 16 1.6 4.8 0.00 0.18 0.00 88 1012.5
20260504000503 13 326 0.0 4.8 0.00 0.18 0.00 88 1012.5
20260504000003 13 313 1.6 4.8 0.00 0.18 0.00 88 1012.5
20260503235503 13 304 1.6 8.0 0.00 0.18 0.00 88 1012.7
20260503235003 13 215 4.8 16.1 0.00 0.18 0.00 88 1012.7
20260503234517 13 186 4.8 16.1 0.00 0.18 0.00 88 1012.8
20260503234003 14 158 4.8 11.3 0.00 0.18 0.00 88 1012.8
20260503233503 14 173 4.8 16.1 0.00 0.18 0.00 87 1012.7
20260503233017 14 204 4.8 16.1 0.00 0.18 0.00 88 1012.5
20260503232503 14 245 6.4 14.5 0.00 0.18 0.00 88 1012.9
20260503232003 14 269 4.8 14.5 0.00 0.18 0.00 89 1012.9
20260503231503 14 313 6.4 22.5 0.00 0.18 0.00 90 1012.9
20260503231003 14 299 8.0 22.5 0.00 0.18 0.00 91 1013.0
20260503230503 14 267 8.0 22.5 0.00 0.18 0.00 91 1013.1
20260503230003 14 250 6.4 16.1 0.00 0.18 0.00 91 1012.8
20260503225503 15 283 6.4 16.1 0.00 0.18 0.00 91 1012.8
20260503225003 15 309 6.4 16.1 0.00 0.18 0.00 91 1012.7
20260503224517 15 316 3.2 14.5 0.00 0.18 0.00 91 1012.6
20260503224003 15 328 0.0 9.7 0.00 0.18 0.00 92 1012.4
20260503223503 15 0 0.0 0.0 0.00 0.18 0.00 92 1012.3
20260503223003 15 0 0.0 0.0 0.00 0.18 0.00 91 1012.3
20260503222503 15 0 0.0 0.0 0.00 0.18 0.00 91 1012.1
20260503222003 15 314 0.0 1.6 0.00 0.18 0.00 91 1012.3
20260503221504 15 314 0.0 1.6 0.00 0.18 0.00 91 1012.2
20260503221003 15 314 0.0 1.6 0.00 0.18 0.00 91 1012.4
20260503220503 15 314 0.0 1.6 0.00 0.18 0.00 91 1012.4
20260503220003 15 314 0.0 1.6 0.00 0.18 0.00 91 1012.4
20260503215503 15 314 0.0 1.6 0.00 0.18 0.18 91 1012.4
20260503215003 15 314 0.0 4.8 0.00 0.18 0.18 91 1012.3
20260503214503 15 315 1.6 4.8 0.00 0.18 0.18 91 1012.3
20260503214003 15 316 3.2 6.4 0.00 0.18 0.18 90 1012.2
20260503213503 15 317 3.2 6.4 0.00 0.18 0.18 90 1012.4
20260503213003 15 318 1.6 4.8 0.00 0.18 0.18 91 1012.3
20260503212517 15 319 0.0 3.2 0.00 0.18 0.18 91 1012.3
20260503212003 15 319 0.0 3.2 0.00 0.18 0.18 91 1012.3
20260503211503 15 319 0.0 3.2 0.00 0.18 0.18 90 1012.4
20260503211003 15 0 0.0 0.0 0.00 0.18 0.18 90 1012.3
20260503210503 15 0 0.0 0.0 0.00 0.18 0.18 90 1012.3
20260503210003 15 319 0.0 1.6 0.00 0.18 0.18 90 1012.3
20260503205517 15 319 0.0 1.6 0.03 0.18 0.18 90 1012.4
20260503205003 15 319 0.0 3.2 0.03 0.18 0.18 90 1012.4
20260503204503 15 319 1.6 3.2 0.03 0.18 0.18 90 1012.4
20260503204003 15 319 0.0 1.6 0.03 0.18 0.18 90 1012.4
20260503203503 15 319 0.0 1.6 0.03 0.18 0.18 90 1012.5
20260503203003 15 319 0.0 1.6 0.03 0.18 0.18 90 1012.5
20260503202517 15 319 0.0 1.6 0.03 0.18 0.18 90 1012.4
20260503202003 15 319 1.6 3.2 0.03 0.18 0.18 89 1012.3
20260503201503 15 319 1.6 3.2 0.03 0.18 0.18 89 1012.4
20260503201003 15 319 0.0 3.2 0.03 0.20 0.18 90 1012.3
20260503200503 15 319 1.6 3.2 0.05 0.20 0.18 89 1012.3
20260503200003 15 319 1.6 3.2 0.05 0.20 0.18 90 1012.3
20260503195503 15 319 1.6 4.8 0.05 0.18 0.15 89 1012.1
20260503195003 15 319 1.6 4.8 0.08 0.18 0.15 89 1012.1
20260503194503 16 321 1.6 8.0 0.08 0.18 0.15 89 1012.1
20260503194017 16 322 3.2 12.9 0.08 0.18 0.15 89 1012.2
20260503193503 15 321 4.8 14.5 0.08 0.18 0.15 89 1012.0
20260503193003 16 327 3.2 14.5 0.08 0.18 0.15 89 1012.0
20260503192503 16 332 6.4 17.7 0.10 0.18 0.15 89 1011.9
20260503192003 16 327 8.0 17.7 0.10 0.18 0.15 88 1011.9
20260503191503 16 325 8.0 17.7 0.10 0.18 0.15 88 1011.8
20260503191017 16 325 8.0 17.7 0.10 0.18 0.15 87 1011.8
20260503190503 16 324 8.0 17.7 0.08 0.15 0.15 86 1011.8
20260503190017 16 323 6.4 14.5 0.05 0.15 0.13 86 1011.6
20260503185503 16 322 8.0 14.5 0.05 0.13 0.10 85 1011.7
20260503185003 16 321 6.4 17.7 0.05 0.10 0.08 85 1011.6
20260503184517 16 322 1.6 17.7 0.05 0.10 0.08 86 1011.5
20260503184003 17 333 0.0 3.2 0.05 0.10 0.08 86 1011.3
20260503183503 17 333 0.0 3.2 0.05 0.10 0.08 86 1011.3
20260503183003 17 333 1.6 3.2 0.05 0.10 0.08 86 1011.2
20260503182503 17 333 1.6 4.8 0.03 0.08 0.05 85 1011.2
20260503182003 17 333 1.6 4.8 0.03 0.08 0.05 84 1011.1
20260503181504 17 333 0.0 1.6 0.03 0.08 0.05 84 1011.1
20260503181003 17 332 1.6 4.8 0.03 0.08 0.05 83 1011.0
20260503180503 17 332 1.6 4.8 0.03 0.08 0.05 82 1010.9
20260503180004 17 331 1.6 3.2 0.03 0.08 0.05 83 1010.9
20260503175517 17 331 1.6 3.2 0.03 0.08 0.05 82 1010.8
20260503175003 17 331 1.6 6.4 0.00 0.05 0.05 82 1010.8
20260503174503 17 331 3.2 6.4 0.00 0.05 0.05 80 1010.7
20260503174003 17 331 1.6 4.8 0.00 0.05 0.05 80 1010.5
20260503173503 17 331 0.0 1.6 0.00 0.05 0.05 79 1010.5
20260503173003 17 331 0.0 3.2 0.00 0.05 0.05 78 1010.5
20260503172503 18 331 1.6 3.2 0.00 0.05 0.05 78 1010.6
20260503172017 18 331 1.6 4.8 0.00 0.05 0.05 77 1010.6
20260503171503 18 331 1.6 4.8 0.00 0.05 0.05 76 1010.7
20260503171003 18 331 1.6 3.2 0.00 0.05 0.05 76 1010.7
20260503170503 18 331 1.6 3.2 0.00 0.05 0.05 74 1010.6
20260503151003 17 100 1.6 4.8 0.00 0.13 0.05 77 1011.6
20260503150503 17 97 1.6 4.8 0.00 0.13 0.05 77 1011.9
20260503131003 16 305 9.7 29.0 0.00 0.08 0.00 77 1013.3
20260503130503 17 302 11.3 27.4 0.00 0.08 0.00 74 1013.2
20260503110503 20 170 8.0 19.3 0.00 0.08 0.00 64 1013.0
20260503090503 18 102 3.2 6.4 0.00 0.08 0.00 79 1013.6
20260503081517 16 314 0.0 3.2 0.00 0.08 0.00 87 1013.7
20260503081003 16 314 1.6 3.2 0.00 0.08 0.00 88 1013.8
20260503080517 16 315 0.0 3.2 0.00 0.08 0.00 89 1013.8
20260503072517 14 0 0.0 0.0 0.00 0.08 0.00 93 1013.8
20260503072003 14 0 0.0 0.0 0.00 0.08 0.00 93 1013.8
20260503071517 14 0 0.0 0.0 0.00 0.08 0.00 93 1013.8
20260503071003 13 0 0.0 0.0 0.00 0.08 0.00 93 1013.9
20260503070503 13 0 0.0 0.0 0.00 0.08 0.00 93 1013.9
20260503055003 13 0 0.0 0.0 0.00 0.08 0.00 92 1013.5
20260503054503 13 317 0.0 3.2 0.00 0.08 0.00 91 1013.4
20260503054017 13 317 0.0 3.2 0.00 0.08 0.00 91 1013.4
20260503053503 13 317 1.6 4.8 0.00 0.08 0.00 91 1013.5
20260503053003 13 317 1.6 4.8 0.00 0.08 0.00 91 1013.3
20260503052503 13 317 0.0 3.2 0.00 0.08 0.00 91 1013.4
20260503052003 13 317 1.6 6.4 0.00 0.08 0.00 91 1013.4
20260503051503 13 317 1.6 6.4 0.00 0.08 0.00 91 1013.4
20260503051003 13 317 1.6 3.2 0.00 0.08 0.00 90 1013.4
20260503050503 13 317 1.6 3.2 0.00 0.08 0.00 91 1013.2
20260503050003 13 317 0.0 1.6 0.00 0.08 0.00 91 1013.2
20260503045503 13 317 0.0 1.6 0.00 0.08 0.00 91 1013.2
20260503045003 13 0 0.0 0.0 0.00 0.08 0.00 90 1013.3
20260503044503 13 0 0.0 0.0 0.00 0.08 0.00 90 1013.3
20260503044003 13 317 0.0 1.6 0.00 0.08 0.00 90 1013.2
20260503043503 13 317 0.0 1.6 0.00 0.08 0.00 90 1013.2
20260503043003 13 317 0.0 1.6 0.00 0.08 0.00 90 1013.3
20260503042503 13 317 0.0 3.2 0.00 0.08 0.00 90 1013.3
20260503042003 13 317 1.6 3.2 0.00 0.08 0.00 90 1013.4
20260503041503 13 317 0.0 3.2 0.00 0.08 0.00 90 1013.5
20260503041003 13 317 0.0 1.6 0.00 0.08 0.00 90 1013.4
20260503040503 13 0 0.0 0.0 0.00 0.08 0.00 90 1013.5
20260503040017 13 317 0.0 1.6 0.00 0.08 0.00 90 1013.4
20260503035503 13 317 0.0 1.6 0.00 0.08 0.00 90 1013.4
20260503035003 13 317 0.0 1.6 0.00 0.08 0.00 90 1013.5
20260503034517 14 317 0.0 3.2 0.00 0.08 0.00 90 1013.4
20260503034003 14 317 1.6 3.2 0.00 0.08 0.00 90 1013.4
20260503033503 13 317 1.6 3.2 0.00 0.08 0.00 89 1013.4
20260503033003 14 317 0.0 3.2 0.00 0.08 0.00 89 1013.3
20260503032503 14 317 0.0 3.2 0.00 0.08 0.00 89 1013.2
20260503032003 14 317 0.0 3.2 0.00 0.08 0.00 89 1013.3
20260503031503 14 317 0.0 3.2 0.00 0.08 0.00 89 1013.4
20260503031017 14 317 1.6 3.2 0.00 0.08 0.00 89 1013.3
20260503030503 14 317 1.6 6.4 0.00 0.08 0.00 88 1013.4
20260503030017 14 329 3.2 9.7 0.00 0.08 0.00 88 1013.4
20260503025503 15 331 4.8 9.7 0.00 0.08 0.00 89 1013.5
20260503025003 15 328 6.4 12.9 0.00 0.08 0.00 89 1013.5
20260503024503 15 326 6.4 12.9 0.00 0.08 0.00 89 1013.5